EW6155 Weather Reports


Display with metric or nautical units.
time (UTC)temp
F
wind
direction
speed
MPH
gust
MPH
rain 1hr
in
rain 24hr
in
rain mn
in
humidity
%
barometer
mb
20240614100809 53 277 0.0 0.0 0.00 0.00 0.00 87 1025.3
20240614100306 53 277 0.0 0.0 0.00 0.00 0.00 86 1025.3
20240614095803 53 277 0.0 0.0 0.00 0.00 0.00 86 1025.3
20240614095301 53 277 0.0 0.0 0.00 0.00 0.00 86 1025.5
20240614094806 53 274 0.0 1.0 0.00 0.00 0.00 85 1025.6
20240614094801 53 277 0.0 1.0 0.00 0.00 0.00 85 1025.6
20240614093805 54 274 0.0 1.0 0.00 0.00 0.00 84 1025.7
20240614093801 53 274 0.0 0.0 0.00 0.00 0.00 84 1025.7
20240614093402 54 274 0.0 2.0 0.00 0.00 0.00 84 1025.8
20240614092257 54 278 0.0 2.0 0.00 0.00 0.00 85 1026.0
20240614091754 53 298 0.0 1.0 0.00 0.00 0.00 85 1026.0
20240614091253 54 338 0.0 1.0 0.00 0.00 0.00 84 1026.1
20240614090753 54 338 0.0 1.0 0.00 0.00 0.00 84 1026.1
20240614090254 54 338 0.0 0.0 0.00 0.00 0.00 84 1026.1
20240614085754 54 338 0.0 0.0 0.00 0.00 0.00 84 1026.2
20240614085255 54 338 0.0 0.0 0.00 0.00 0.00 83 1026.2
20240614084754 54 338 0.0 0.0 0.00 0.00 0.00 83 1026.3
20240614084253 54 338 0.0 0.0 0.00 0.00 0.00 83 1026.3
20240614083754 54 338 0.0 0.0 0.00 0.00 0.00 82 1026.3
20240614083254 55 338 0.0 0.0 0.00 0.00 0.00 82 1026.3
20240614082753 55 338 0.0 0.0 0.00 0.00 0.00 82 1026.3
20240614082251 55 338 0.0 0.0 0.00 0.00 0.00 81 1026.5
20240614081756 55 339 0.0 0.0 0.00 0.00 0.00 79 1026.6
20240614081752 55 339 0.0 0.0 0.00 0.00 0.00 80 1026.5
20240614081356 56 342 0.0 0.0 0.00 0.00 0.00 79 1026.6
20240614080251 56 283 0.0 0.0 0.00 0.00 0.00 78 1026.6
20240614075256 57 283 0.0 1.0 0.00 0.00 0.00 76 1026.7
20240614075252 56 283 0.0 1.0 0.00 0.00 0.00 77 1026.7
20240614074252 57 300 1.0 3.0 0.00 0.00 0.00 76 1026.7
20240614073750 57 300 1.0 3.0 0.00 0.00 0.00 77 1026.8
20240614073249 56 301 0.0 2.0 0.00 0.00 0.00 78 1027.0
20240614072750 57 302 0.0 1.0 0.00 0.00 0.00 78 1026.8
20240614072249 57 302 0.0 1.0 0.00 0.00 0.00 77 1026.8
20240614071750 57 302 0.0 2.0 0.00 0.00 0.00 76 1027.0
20240614071250 57 305 0.0 2.0 0.00 0.00 0.00 76 1026.8
20240614070750 58 276 0.0 1.0 0.00 0.00 0.00 75 1026.7
20240614070249 58 267 0.0 1.0 0.00 0.00 0.00 74 1026.8
20240614065753 59 1 0.0 1.0 0.00 0.00 0.00 73 1026.8
20240614065749 58 293 0.0 1.0 0.00 0.00 0.00 74 1026.8
20240614065352 59 295 0.0 1.0 0.00 0.00 0.00 73 1026.7
20240614064247 59 302 0.0 1.0 0.00 0.00 0.00 73 1026.8
20240614063747 59 298 0.0 0.0 0.00 0.00 0.00 72 1026.7
20240614063248 60 298 0.0 1.0 0.00 0.00 0.00 71 1026.6
20240614062851 61 304 0.0 2.0 0.00 0.00 0.00 69 1026.7
20240614062352 61 65 0.0 2.0 0.00 0.00 0.00 69 1026.6
20240614061852 61 32 0.0 2.0 0.00 0.00 0.00 69 1026.5
20240614060747 61 311 0.0 3.0 0.00 0.00 0.00 68 1026.5
20240614060247 61 283 0.0 3.0 0.00 0.00 0.00 68 1026.6
20240614055747 62 319 1.0 1.0 0.00 0.00 0.00 67 1026.5
20240614055247 62 300 0.0 1.0 0.00 0.00 0.00 68 1026.3
20240614054246 62 287 0.0 1.0 0.00 0.00 0.00 66 1026.6
20240614053747 63 329 1.0 2.0 0.00 0.00 0.00 64 1026.5
20240614053248 63 329 1.0 2.0 0.00 0.00 0.00 63 1026.5
20240614052748 64 277 1.0 4.0 0.00 0.00 0.00 63 1026.6
20240614052246 64 273 1.0 4.0 0.00 0.00 0.00 62 1026.6
20240614051746 64 154 0.0 2.0 0.00 0.00 0.00 62 1026.7
20240614051247 64 263 0.0 1.0 0.00 0.00 0.00 62 1026.7
20240614050748 64 240 1.0 3.0 0.00 0.00 0.00 61 1026.7
20240614050251 65 160 1.0 5.0 0.00 0.00 0.00 61 1026.7
20240614050247 65 240 1.0 3.0 0.00 0.00 0.00 61 1026.5
20240614044745 64 194 0.0 3.0 0.00 0.00 0.00 60 1026.8
20240614044246 65 257 0.0 1.0 0.00 0.00 0.00 58 1026.8
20240614043746 65 257 0.0 1.0 0.00 0.00 0.00 57 1026.8
20240614043250 66 238 0.0 1.0 0.00 0.00 0.00 55 1027.2
20240614043246 65 239 0.0 1.0 0.00 0.00 0.00 56 1027.0
20240614042850 66 128 0.0 1.0 0.00 0.00 0.00 55 1027.5
20240614041754 66 104 0.0 1.0 0.00 0.00 0.00 55 1027.5
20240614041243 66 68 0.0 1.0 0.00 0.00 0.00 55 1027.6
20240614040743 67 330 0.0 1.0 0.00 0.00 0.00 54 1027.5
20240614040243 67 321 0.0 1.0 0.00 0.00 0.00 52 1027.2
20240614035743 67 284 0.0 1.0 0.00 0.00 0.00 54 1027.2
20240614035241 67 283 0.0 2.0 0.00 0.00 0.00 53 1027.0
20240614034741 67 49 1.0 6.0 0.00 0.00 0.00 54 1026.6
20240614034241 67 75 0.0 6.0 0.00 0.00 0.00 56 1026.2
20240614033741 67 359 0.0 1.0 0.00 0.00 0.00 57 1026.0
20240614033241 67 298 0.0 1.0 0.00 0.00 0.00 57 1026.0
20240614032740 66 300 0.0 1.0 0.00 0.00 0.00 57 1025.8
20240614032240 67 298 0.0 0.0 0.00 0.00 0.00 57 1025.8
20240614031741 67 298 0.0 0.0 0.00 0.00 0.00 56 1025.8
20240614031240 67 298 0.0 1.0 0.00 0.00 0.00 55 1025.7
20240614030741 68 314 0.0 1.0 0.00 0.00 0.00 54 1025.7
20240614030240 68 314 0.0 1.0 0.00 0.00 0.00 54 1025.7
20240614025741 68 312 0.0 1.0 0.00 0.00 0.00 54 1025.6
20240614025240 69 290 0.0 1.0 0.00 0.00 0.00 54 1025.3
20240614024740 69 309 0.0 1.0 0.00 0.00 0.00 53 1025.2
20240614024244 70 291 0.0 2.0 0.00 0.00 0.00 51 1025.1
20240614024240 69 291 0.0 2.0 0.00 0.00 0.00 52 1025.2
20240614023843 71 170 0.0 3.0 0.00 0.00 0.00 49 1025.0
20240614022739 71 10 0.0 3.0 0.00 0.00 0.00 49 1025.0
20240614022239 72 335 1.0 4.0 0.00 0.00 0.00 48 1025.0
20240614021740 72 318 1.0 4.0 0.00 0.00 0.00 48 1024.7
20240614021239 72 335 1.0 4.0 0.00 0.00 0.00 47 1024.7
20240614020739 73 324 1.0 4.0 0.00 0.00 0.00 47 1024.6
20240614020241 73 27 1.0 5.0 0.00 0.00 0.00 46 1024.6
20240614015739 73 32 1.0 6.0 0.00 0.00 0.00 46 1024.5
20240614015239 74 78 1.0 6.0 0.00 0.00 0.00 46 1024.5
20240614014738 74 80 1.0 5.0 0.00 0.00 0.00 45 1024.3
20240614014243 74 46 2.0 6.0 0.00 0.00 0.00 44 1024.1
20240614014239 74 90 2.0 6.0 0.00 0.00 0.00 44 1024.1
20240614013237 75 357 2.0 5.0 0.00 0.00 0.00 44 1024.0
20240614012737 75 58 2.0 7.0 0.00 0.00 0.00 44 1023.8
20240614012235 75 85 4.0 13.0 0.00 0.00 0.00 44 1023.8
20240614011735 76 101 5.0 13.0 0.00 0.00 0.00 43 1023.8
20240614011235 76 18 4.0 10.0 0.00 0.00 0.00 42 1023.7
20240614010735 76 72 4.0 12.0 0.00 0.00 0.00 42 1023.6
20240614010235 76 3 5.0 12.0 0.00 0.00 0.00 41 1023.6
20240614005738 77 53 5.0 13.0 0.00 0.00 0.00 40 1023.5
20240614005734 77 85 5.0 12.0 0.00 0.00 0.00 40 1023.5
20240614004736 77 64 5.0 15.0 0.00 0.00 0.00 40 1023.5
20240614004235 78 318 5.0 15.0 0.00 0.00 0.00 40 1023.5
20240614003735 78 77 4.0 9.0 0.00 0.00 0.00 39 1023.5
20240614003233 78 105 3.0 10.0 0.00 0.00 0.00 39 1023.6
20240614002737 78 321 2.0 7.0 0.00 0.00 0.00 39 1023.7
20240614002733 79 80 2.0 10.0 0.00 0.00 0.00 39 1023.6
20240614001733 78 108 3.0 10.0 0.00 0.00 0.00 39 1023.7
20240614001233 78 40 3.0 10.0 0.00 0.00 0.00 38 1023.7
20240614000733 78 167 2.0 10.0 0.00 0.00 0.00 39 1023.7
20240614000237 78 68 4.0 10.0 0.00 0.00 0.00 38 1023.5
20240614000234 78 115 3.0 10.0 0.00 0.00 0.00 38 1023.6
20240613235837 78 242 3.0 10.0 0.00 0.00 0.00 38 1023.5
20240613234737 78 307 4.0 10.0 0.00 0.00 0.00 36 1023.3
20240613234733 78 98 3.0 10.0 0.00 0.00 0.00 37 1023.3
20240613233742 78 80 3.0 13.0 0.00 0.00 0.00 36 1023.3
20240613233242 78 269 2.0 13.0 0.00 0.00 0.00 35 1023.3
20240613232733 79 271 2.0 6.0 0.00 0.00 0.00 34 1023.3
20240613232237 78 86 2.0 9.0 0.00 0.00 0.00 32 1023.2
20240613232233 79 115 3.0 9.0 0.00 0.00 0.00 33 1023.2
20240613231233 79 73 0.0 4.0 0.00 0.00 0.00 29 1023.2
20240613230733 79 102 0.0 1.0 0.00 0.00 0.00 28 1023.1
20240613230233 79 96 0.0 1.0 0.00 0.00 0.00 28 1023.1
20240613225837 79 277 0.0 0.0 0.00 0.00 0.00 26 1023.2
20240613224733 80 277 0.0 0.0 0.00 0.00 0.00 24 1023.3
20240613224233 80 275 0.0 1.0 0.00 0.00 0.00 25 1023.3
20240613223728 80 275 0.0 1.0 0.00 0.00 0.00 25 1023.3
20240613223229 81 278 0.0 1.0 0.00 0.00 0.00 25 1023.3
20240613222740 81 93 0.0 1.0 0.00 0.00 0.00 24 1023.3
20240613222736 81 93 0.0 0.0 0.00 0.00 0.00 25 1023.3
20240613222330 81 91 0.0 2.0 0.00 0.00 0.00 24 1023.5
20240613221226 81 231 0.0 2.0 0.00 0.00 0.00 24 1023.6
20240613220727 81 165 0.0 2.0 0.00 0.00 0.00 23 1023.6
20240613220231 82 218 0.0 1.0 0.00 0.00 0.00 25 1023.6
20240613220227 82 217 0.0 1.0 0.00 0.00 0.00 22 1023.6
20240613215226 82 215 0.0 1.0 0.00 0.00 0.00 23 1023.6
20240613214731 82 150 2.0 4.0 0.00 0.00 0.00 21 1023.7
20240613214727 82 215 1.0 4.0 0.00 0.00 0.00 21 1023.6
20240613213730 81 67 1.0 5.0 0.00 0.00 0.00 23 1023.7
20240613213726 81 61 1.0 5.0 0.00 0.00 0.00 22 1023.7
20240613212724 81 203 2.0 7.0 0.00 0.00 0.00 22 1023.7
20240613212224 81 113 3.0 7.0 0.00 0.00 0.00 23 1023.7
20240613211725 82 150 3.0 9.0 0.00 0.00 0.00 21 1023.7
20240613211225 83 98 4.0 11.0 0.00 0.00 0.00 20 1023.7
20240613210725 83 321 4.0 11.0 0.00 0.00 0.00 21 1023.6
20240613210224 83 16 4.0 10.0 0.00 0.00 0.00 21 1023.7
20240613205724 83 128 5.0 9.0 0.00 0.00 0.00 20 1023.7
20240613205225 82 95 4.0 9.0 0.00 0.00 0.00 21 1023.7
20240613204725 82 86 3.0 9.0 0.00 0.00 0.00 24 1023.7
20240613204224 81 73 2.0 6.0 0.00 0.00 0.00 21 1023.8
20240613203729 81 176 2.0 6.0 0.00 0.00 0.00 23 1024.1
20240613203725 81 139 2.0 6.0 0.00 0.00 0.00 24 1024.0
20240613202729 81 133 2.0 6.0 0.00 0.00 0.00 23 1024.1
20240613202724 81 172 2.0 6.0 0.00 0.00 0.00 22 1024.1
20240613201727 81 102 3.0 7.0 0.00 0.00 0.00 22 1024.1
20240613201723 81 129 2.0 7.0 0.00 0.00 0.00 21 1024.1
20240613200222 80 89 4.0 10.0 0.00 0.00 0.00 22 1024.1
20240613195722 80 102 2.0 6.0 0.00 0.00 0.00 23 1024.2
20240613195227 81 141 3.0 7.0 0.00 0.00 0.00 22 1024.3
20240613195222 80 71 2.0 7.0 0.00 0.00 0.00 23 1024.3
20240613194222 81 328 4.0 11.0 0.00 0.00 0.00 21 1024.2
20240613193722 81 65 4.0 11.0 0.00 0.00 0.00 24 1024.2
20240613193222 82 87 5.0 12.0 0.00 0.00 0.00 23 1024.3
20240613192722 82 343 6.0 13.0 0.00 0.00 0.00 23 1024.5
20240613192234 81 68 7.0 15.0 0.00 0.00 0.00 21 1024.5
20240613192230 82 121 7.0 13.0 0.00 0.00 0.00 23 1024.3
20240613191334 82 111 5.0 12.0 0.00 0.00 0.00 21 1024.6
20240613190221 83 90 5.0 15.0 0.00 0.00 0.00 22 1024.6
20240613185720 83 94 7.0 15.0 0.00 0.00 0.00 20 1024.5
20240613185225 83 63 5.0 17.0 0.00 0.00 0.00 21 1024.5
20240613185221 82 53 7.0 17.0 0.00 0.00 0.00 24 1024.5
20240613184225 82 75 6.0 12.0 0.00 0.00 0.00 24 1024.3
20240613184221 83 332 5.0 13.0 0.00 0.00 0.00 23 1024.2
20240613183216 82 80 6.0 13.0 0.00 0.00 0.00 23 1024.5
20240613182717 82 72 6.0 13.0 0.00 0.00 0.00 23 1024.3
20240613182221 81 58 6.0 14.0 0.00 0.00 0.00 22 1024.3
20240613182216 82 63 6.0 13.0 0.00 0.00 0.00 22 1024.3
20240613181217 81 94 7.0 14.0 0.00 0.00 0.00 23 1024.5
20240613180717 82 76 6.0 14.0 0.00 0.00 0.00 20 1024.3
20240613180220 81 72 3.0 9.0 0.00 0.00 0.00 23 1024.3
20240613180216 82 116 4.0 11.0 0.00 0.00 0.00 22 1024.3
20240613175216 81 336 4.0 9.0 0.00 0.00 0.00 21 1024.3
20240613174714 80 91 4.0 9.0 0.00 0.00 0.00 22 1024.3
20240613173714 80 278 1.0 7.0 0.00 0.00 0.00 23 1024.5
20240613173218 78 343 2.0 8.0 0.00 0.00 0.00 27 1024.6
20240613173214 79 71 1.0 5.0 0.00 0.00 0.00 26 1024.5
20240613172818 78 186 4.0 10.0 0.00 0.00 0.00 26 1024.7
20240613171713 78 72 6.0 10.0 0.00 0.00 0.00 24 1024.6
20240613171214 78 44 4.0 10.0 0.00 0.00 0.00 27 1024.5
20240613170713 79 65 4.0 10.0 0.00 0.00 0.00 28 1024.6
20240613170214 80 115 5.0 11.0 0.00 0.00 0.00 26 1024.5
20240613165718 82 139 6.0 12.0 0.00 0.00 0.00 27 1024.1
20240613165714 81 110 6.0 12.0 0.00 0.00 0.00 27 1024.3
20240613164213 84 90 2.0 8.0 0.00 0.00 0.00 24 1024.0
20240613163717 85 58 2.0 9.0 0.00 0.00 0.00 16 1024.0
20240613163712 85 270 2.0 9.0 0.00 0.00 0.00 21 1024.1
20240613162720 85 168 3.0 7.0 0.00 0.00 0.00 15 1023.8
20240613162211 84 231 3.0 8.0 0.00 0.00 0.00 17 1024.0
20240613161710 84 51 3.0 8.0 0.00 0.00 0.00 15 1023.8
20240613161211 84 90 3.0 7.0 0.00 0.00 0.00 16 1023.8
20240613160711 84 39 3.0 8.0 0.00 0.00 0.00 16 1023.8
20240613160210 85 18 2.0 8.0 0.00 0.00 0.00 15 1023.8
20240613155710 85 4 2.0 7.0 0.00 0.00 0.00 14 1024.0
20240613155215 85 205 1.0 4.0 0.00 0.00 0.00 14 1024.0
20240613155211 85 252 2.0 7.0 0.00 0.00 0.00 15 1023.8
20240613154814 84 100 2.0 4.0 0.00 0.00 0.00 17 1023.8
20240613154314 84 307 2.0 6.0 0.00 0.00 0.00 15 1023.8
20240613153814 83 285 2.0 7.0 0.00 0.00 0.00 16 1023.8
20240613152709 83 211 2.0 7.0 0.00 0.00 0.00 15 1023.8
20240613152210 83 231 1.0 6.0 0.00 0.00 0.00 17 1024.0
20240613151710 82 265 2.0 6.0 0.00 0.00 0.00 17 1024.0
20240613151214 82 107 1.0 6.0 0.00 0.00 0.00 18 1024.0
20240613151210 82 32 2.0 6.0 0.00 0.00 0.00 19 1023.8
20240613150210 81 118 1.0 3.0 0.00 0.00 0.00 23 1024.1
20240613145706 80 71 1.0 4.0 0.00 0.00 0.00 27 1024.0
20240613145205 79 111 1.0 4.0 0.00 0.00 0.00 32 1024.0
20240613144709 78 83 1.0 3.0 0.00 0.00 0.00 33 1023.8
20240613144704 78 103 1.0 3.0 0.00 0.00 0.00 34 1023.8
20240613143702 77 32 1.0 3.0 0.00 0.00 0.00 33 1023.7
20240613143204 77 87 1.0 3.0 0.00 0.00 0.00 34 1023.7
20240613143200 77 75 1.0 3.0 0.00 0.00 0.00 34 1023.7
20240613142804 76 68 1.0 2.0 0.00 0.00 0.00 36 1023.7
20240613141700 77 104 0.0 2.0 0.00 0.00 0.00 37 1023.6
20240613141159 76 64 0.0 1.0 0.00 0.00 0.00 37 1023.6
20240613140658 74 79 0.0 1.0 0.00 0.00 0.00 35 1023.7
20240613140202 72 70 1.0 3.0 0.00 0.00 0.00 40 1023.6
20240613140158 73 111 1.0 3.0 0.00 0.00 0.00 37 1023.6
20240613135158 74 101 0.0 2.0 0.00 0.00 0.00 39 1023.5
20240613134702 74 40 0.0 1.0 0.00 0.00 0.00 38 1023.5
20240613134155 74 27 0.0 1.0 0.00 0.00 0.00 34 1023.3
20240613133654 73 28 0.0 1.0 0.00 0.00 0.00 39 1023.3
20240613133155 72 300 0.0 1.0 0.00 0.00 0.00 39 1023.3
20240613132653 71 299 0.0 0.0 0.00 0.00 0.00 40 1023.3
20240613131654 69 295 0.0 1.0 0.00 0.00 0.00 39 1023.2
20240613131157 70 295 0.0 0.0 0.00 0.00 0.00 34 1023.1
20240613131153 69 295 0.0 0.0 0.00 0.00 0.00 34 1023.1
20240613130204 68 295 0.0 0.0 0.00 0.00 0.00 38 1023.1
20240613125655 67 295 0.0 0.0 0.00 0.00 0.00 37 1023.1
20240613124652 64 295 0.0 0.0 0.00 0.00 0.00 39 1023.1
20240613124152 63 295 0.0 0.0 0.00 0.00 0.00 39 1023.1
20240613123652 62 295 0.0 0.0 0.00 0.00 0.00 41 1023.1
20240613123151 62 295 0.0 0.0 0.00 0.00 0.00 42 1023.0
20240613122652 61 295 0.0 0.0 0.00 0.00 0.00 42 1023.0
20240613122152 60 295 0.0 0.0 0.00 0.00 0.00 43 1023.0
20240613121652 60 295 0.0 0.0 0.00 0.00 0.00 44 1023.0
20240613121151 60 295 0.0 1.0 0.00 0.00 0.00 43 1022.8
20240613120657 60 295 0.0 2.0 0.00 0.00 0.00 42 1022.8
20240613120653 60 295 0.0 1.0 0.00 0.00 0.00 43 1022.8
20240613115650 60 295 1.0 2.0 0.00 0.00 0.00 42 1022.8
20240613115150 59 278 1.0 2.0 0.00 0.00 0.00 42 1022.8
20240613114650 59 281 0.0 1.0 0.00 0.00 0.00 43 1022.8
20240613114154 58 302 0.0 1.0 0.00 0.00 0.00 47 1022.7
20240613114150 58 281 0.0 1.0 0.00 0.00 0.00 44 1022.7
20240613113150 58 311 0.0 1.0 0.00 0.00 0.00 48 1022.7
20240613112649 58 324 0.0 1.0 0.00 0.00 0.00 48 1022.6
20240613112158 57 284 0.0 1.0 0.00 0.00 0.00 49 1022.6
20240613111658 56 284 0.0 1.0 0.00 0.00 0.00 50 1022.6
20240613111149 56 278 0.0 1.0 0.00 0.00 0.00 50 1022.5
20240613110657 55 285 0.0 1.0 0.00 0.00 0.00 52 1022.3
20240613110647 55 266 0.0 1.0 0.00 0.00 0.00 52 1022.5
20240613105647 55 285 0.0 1.0 0.00 0.00 0.00 53 1022.3
20240613105147 55 285 0.0 1.0 0.00 0.00 0.00 53 1022.5
20240613104649 55 285 0.0 1.0 0.00 0.00 0.00 53 1022.3
20240613104645 55 285 0.0 1.0 0.00 0.00 0.00 53 1022.3
20240613104250 55 285 0.0 1.0 0.00 0.00 0.00 54 1022.3
20240613103145 55 285 0.0 0.0 0.00 0.00 0.00 55 1022.3
20240613102643 55 285 0.0 1.0 0.00 0.00 0.00 55 1022.3
20240613102144 55 285 0.0 1.0 0.00 0.00 0.00 56 1022.3
20240613101641 54 285 0.0 1.0 0.00 0.00 0.00 56 1022.3
20240613101141 54 285 0.0 1.0 0.00 0.00 0.00 57 1022.3